Погода в Быстрице

Россия / Кировская область     58°31′47″N   49°13′06″E
темп.,
°C
ветер,
м/с
пор.,
м/с
влажн.,
%
обл.,
%
осадки,
мм/ч
давл.,
гПа
погр.,
м
13 июня, вс
вс1300:00+12вюв389861 0.0 1014284
03:00+13вюв369891 0.0 1013184
06:00+15вюв3593100 0.0 1013296
09:00+19ююв347870 0.0 1012815
12:00+22ю356098 0.1 10111542
15:00+22ю467314 1.8 10121107
18:00+21ююв368065 1.8 1011253
21:00+17ююв4109263 2.2 1011191
14 июня, пн
пн1400:00+15ююв411955 0.0 1011240
03:00+15ююв399662 0.0 1012205
06:00+18ю4108821 0.0 1012451
09:00+22ююз576883 0.0 10121179
12:00+23юз687157 2.8 10121351
15:00+21зюз51080100 5.8 1013892
18:00+20зюз388348 0.8 1013395
21:00+17з3493100 1.3 101359
15 июня, вт
вт1500:00+17зюз249298 0.0 101473
03:00+15зюз22935 0.0 101521
06:00+18зюз12835 0.0 1015151
09:00+23юз226443 0.0 1014619
12:00+26з235011 0.0 10131700
15:00+24ююв236177 0.0 1012504
18:00+23ю247397 0.0 1011104
21:00+21ю2371100 0.0 101143
16 июня, ср
ср1600:00+18ююз367848 0.0 1011115
03:00+16ю239497 0.2 101149
06:00+18ююз2492100 0.9 1011148
09:00+20ююз358072 1.0 1011378
12:00+24зюз466941 0.1 1010931
15:00+23зюз377594 2.0 1009592
18:00+20сз4989100 3.8 1009388
21:00+16с1397100 14.6 101088
17 июня, чт
чт1700:00+16ссз5109799 0.6 1010464
03:00+13с411967 0.6 1012430
06:00+15с512850 0.0 1014872
09:00+19с610550 0.0 10161699
12:00+21с68455 0.0 10172394
15:00+22ссз684950 0.0 10172453
18:00+18ссз510595 0.0 1019593
21:00+13ссз22694 0.0 102122